Regional Weather Roundup
Issued by NWS

Home | Current Version | Previous Version | Graphics & Text | Print | Product List | Glossary On
Versions: 1 2 3 4 5 6 7 8 9 10 11 12 13 14 15 16 17 18 19 20 21 22 23 24 25 26 27 28 29 30 31 32 33 34 35 36 37 38 39 40 41 42 43 44 45 46 47 48 49 50
000
ASUS43 KMPX 021801
RWRMN
WEATHER ROUNDUP FOR MINNESOTA
NATIONAL WEATHER SERVICE TWIN CITIES/CHANHASSEN MN
100 PM CDT SUN AUG 02 2015


NOTE: "FAIR" INDICATES FEW OR NO CLOUDS BELOW 12,000 FEET WITH NO
SIGNIFICANT WEATHER AND/OR OBSTRUCTIONS TO VISIBILITY. N/A MEANS
CURRENT SKY AND/OR WEATHER CONDITIONS ARE NOT AVAILABLE.

MNZ060>063-068>070-021900-
   Twin Cities Metro

CITY           SKY/WX    TMP DP  RH WIND       PRES   REMARKS
TWIN CITIES    MOSUNNY   83  66  56 NW21      29.66R
6HR MIN TEMP:  71; 6HR MAX TEMP:  84;

ST PAUL        PTSUNNY   83  66  56 NW22G29   29.65S
CRYSTAL        PTSUNNY   81  67  62 NW17      29.66R
BLAINE         PTSUNNY   79  68  69 NW12G20   29.68
LAKEVILLE      SUNNY     81  64  57 W16G25    29.67R
EDEN PRAIRIE   MOSUNNY   84  66  54 NW16G28   29.66R
6HR MIN TEMP:  69; 6HR MAX TEMP:  85;

SOUTH ST PAUL  MOSUNNY   83  64  51 NW23G30   29.65S
LAKE ELMO      PTSUNNY   79  68  69 NW13      29.67R
$$
MNZ001>005-007-008-013>017-022>024-027-028-021900-
   Northwest Minnesota

CITY           SKY/WX    TMP DP  RH WIND       PRES   REMARKS
BEMIDJI        MOSUNNY   72  53  52 NW17G26   29.76S
HALLOCK        MOSUNNY   73  45  35 NW18G26   29.80S
ROSEAU         MOSUNNY   72  52  49 NW12G24   29.77R
WARROAD        MOSUNNY   72  48  43 W14G24    29.75S
THIEF RVR FALL PTSUNNY  N/A N/A N/A NW21G26   29.80S
CROOKSTON      MOSUNNY   73  55  53 N15G22    29.82R
FOSSTON        PTSUNNY   72  52  49 NW14      29.81R
DETROIT LAKES  MOSUNNY   72  55  56 N16G26    29.82R
MOORHEAD       MOSUNNY   73  59  60 N14       29.82S
PARK RAPIDS    MOSUNNY   77  55  46 NW20G26   29.76R
MAHNOMEN       FAIR      71  54  55 NW13G21   29.81R
$$
MNZ006-009>011-018-025>026-021900-
   North Central Minnesota

CITY           SKY/WX    TMP DP  RH WIND       PRES   REMARKS
BAUDETTE       MOSUNNY   70  45  40 NW20G26   29.73S
FLAG ISLAND    MOSUNNY   70  45  40 NW24      29.71S
INTL FALLS     MOSUNNY   71  52  50 NW14G24   29.69R
6HR MIN TEMP:  59; 6HR MAX TEMP:  72;

WASKISH        MOSUNNY   72  54  53 W16G22    29.74S
BIG FORK       MOSUNNY   64  59  82 N3        29.72R
LONGVILLE      SUNNY     75  55  50 NW13G18   29.73S
GRAND RAPIDS   MOSUNNY   73  54  49 NW21      29.71R
CRANE LAKE     CLOUDY    66  54  63 NW7       29.69R
ORR            LGT RAIN  64  57  77 NW9G20    29.67R
COOK           MOSUNNY   72  54  53 NW12G18   29.68S
WALKER         MOCLDY    72  55  54 NW16G23   29.74S
$$
MNZ012-019>021-037-021900-
   Northeast Minnesota

CITY           SKY/WX    TMP DP  RH WIND       PRES   REMARKS
DULUTH         MOSUNNY   73  60  63 NW16G23   29.67R
6HR MIN TEMP:  63; 6HR MAX TEMP:  74; 6HR PCP:  0.02;

ELY            PTSUNNY   70  54  56 NW9       29.66S
HIBBING        PTSUNNY   73  55  53 NW16      29.68S
EVELETH        MOSUNNY   72  52  49 W13G24    29.69R
DULUTH HARBOR  MOSUNNY   75  63  64 W10       29.65R
TWO HARBORS    MOSUNNY   75  63  64 NW6G18    29.63R
SILVER BAY     MOSUNNY   77  57  50 NW5       29.61S
GRAND MARAIS     N/A     58  52  80 SW9       29.59R
G MARAIS ARPRT MOSUNNY   68  50  52 NW6G18    29.64R
$$
MNZ029>031-032-039>041-046>048-054>057-064-021900-
   West Central Minnesota

CITY           SKY/WX    TMP DP  RH WIND       PRES   REMARKS
FERGUS FALLS   MOSUNNY   75  57  53 N15G30    29.80R
WHEATON        MOSUNNY   73  59  60 NW21G26   29.83R
MORRIS         SUNNY     77  63  61 NW17G25   29.79R
ALEXANDRIA     MOSUNNY   77  59  53 N16       29.80R
ELBOW LAKE     FAIR      74  61  63 N17G24    29.80R
WADENA         SUNNY     75  57  53 NW20G28   29.76S
GLENWOOD       SUNNY     79  63  57 NW17G26   29.78R
APPLETON       SUNNY     81  61  50 NW17G23   29.79R
BENSON         MOSUNNY   81  61  50 N17       29.77R
ORTONVILLE     SUNNY     77  59  53 NW14G22   29.81R
MADISON        SUNNY     81  63  54 N12G22    29.80R
WILLMAR        FAIR      82  64  54 NW20      29.76R
$$
MNZ033>034-036-042>043-049>051-058-059-021900-
   Central Minnesota

CITY           SKY/WX    TMP DP  RH WIND       PRES   REMARKS
ST CLOUD       SUNNY     80  64  58 N10       29.71R
6HR MIN TEMP:  65; 6HR MAX TEMP:  80; 6HR PCP: TRACE;

SAUK CENTRE    FAIR      78  63  58 NW17G23   29.76R
PAYNESVILLE    MOSUNNY   77  64  65 W10G17    29.75R
AITKIN         PTSUNNY   75  59  57 NW13G18   29.70R
PINE RIVER     MOSUNNY   75  57  53 NW12G20   29.77S
BRAINERD       PTSUNNY   75  57  53 N12       29.73R
STAPLES        MOSUNNY   77  55  47 NW14G24   29.75R
LONG PRAIRIE   PTSUNNY   75  63  64 W16G22    29.77R
LITTLE FALLS   MOSUNNY   79  57  47 NW14G21   29.73R
LITCHFIELD     MOSUNNY   82  72  69 NW13      29.73R
BUFFALO        MOSUNNY   78  66  64 NW13G20   29.71R
MAPLE LAKE     MOSUNNY   79  70  73 N13G18    29.72R
$$
MNZ037-044-045-052-053-021900-
   East Central Minnesota

CITY           SKY/WX    TMP DP  RH WIND       PRES   REMARKS
PRINCETON      SUNNY     81  64  57 NW9       29.69R
MORA           MOSUNNY   75  57  53 N10G18    29.70S
CAMBRIDGE      MOSUNNY   81  63  54 N9        29.66S
RUSH CITY      MOSUNNY   79  58  48 N10G17    29.67S
MOOSE LAKE     PTSUNNY   75  55  50 N9G16     29.67S
HINCKLEY       MOCLDY    77  63  61 NW5       29.68S
CLOQUET        PTSUNNY   72  57  60 W9G17     29.69R
MCGREGOR       MOSUNNY   75  59  57 N14G23    29.71R
$$
MNZ071>073-080-081-089-090-097-098-021900-
   Southwest Minnesota

CITY           SKY/WX    TMP DP  RH WIND       PRES   REMARKS
MONTEVIDEO     SUNNY     82  64  54 N14G22    29.79R
GRANITE FALLS  SUNNY     81  64  56 NW17      29.79R
CANBY          SUNNY     80  65  60 NW13G18   29.82R
MARSHALL       SUNNY     81  64  57 N17G23    29.81R
REDWOOD FALLS  SUNNY     84  66  54 NW14G24   29.75R
OLIVIA         SUNNY     79  64  61 NW16G23   29.74R
PIPESTONE      SUNNY     82  66  57 N9G17     29.83R
WINDOM         MOSUNNY   82  66  57 NW13G21   29.78R
WORTHINGTON    SUNNY     82  64  54 NW15      29.81S
JACKSON        MOSUNNY   84  64  51 NW12G22   29.79S
SLAYTON        SUNNY     82  66  58 NW12G22   29.82S
$$
MNZ065>067-074>077-082>085-091>093-021900-
   South Central Minnesota

CITY           SKY/WX    TMP DP  RH WIND       PRES   REMARKS
MANKATO        SUNNY     82  63  51 W17G25    29.70R
NEW ULM        SUNNY     82  63  51 NW18G25   29.73R
ST JAMES       SUNNY     84  68  58 W17G23    29.75R
FAIRMONT       SUNNY     84  63  48 NW16      29.74F
GLENCOE        SUNNY     82  70  66 NW14      29.70R
FARIBAULT      SUNNY     82  66  57 W20G26    29.69R
OWATONNA       SUNNY     82  66  57 W18G28    29.70R
WASECA         SUNNY     82  68  61 W15G22    29.72R
ALBERT LEA     SUNNY     86  66  51 W10G20    29.71S
$$
MNZ078>079-086>088-094>096-021900-
   Southeast Minnesota

CITY           SKY/WX    TMP DP  RH WIND       PRES   REMARKS
ROCHESTER      SUNNY     83  70  64 W21G30    29.68S
6HR MIN TEMP:  70; 6HR MAX TEMP:  83;

RED WING       SUNNY     86  64  48 W22G30    29.62R
STANTON        SUNNY     84  65  52 W17G28    29.66R
DODGE CENTER   SUNNY     82  66  57 W21G26    29.68S
WINONA         MOSUNNY   90  68  48 W9G17     29.61S HX  93
AUSTIN         SUNNY     86  66  51 W18G24    29.70S
PRESTON        SUNNY     85  68  57 W18G26    29.69S
$$
ABBREVIATIONS USED IN REMARKS
   TC - TEMPERATURES IN CELSIUS
  WCI - WIND CHILL INDEX
   HX - HEAT INDEX
  VSB - VISIBILITY
$$



USA.gov is the U.S. government's official web portal to all federal, state and local government web resources and services.